Lid_Strength_Index
6 6 6 5 5 4 4 3 2 1 1 1 1 0 -1 -1 -0 -0 1 0 4 7 6 5 5 7 6 7 10 7 9 7 9 11 11 11 12 11 11 9 10 11 12 12 11 14 17 6 6 11 9 6 6 5
6 6 5 4 4 3 3 3 2 1 1 1 1 -0 -1 -1 -0 -0 2 -1 1 6 5 2 2 1 3 3 6 5 7 8 7 10 9 8 11 10 10 14 7 12 9 11 11 13 7 6 7 5 5 6 5 5
6 5 5 4 3 3 3 2 2 1 1 1 1 -0 -1 -1 -0 0 1 0 3 5 6 5 5 2 0 1 1 7 5 5 5 4 7 7 11 9 12 11 10 8 7 10 10 9 8 6 5 4 4 5 5 5
5 5 4 3 2 2 2 2 1 1 1 1 1 -0 -0 -0 -0 0 1 0 2 5 9 7 3 4 0 0 1 1 3 2 3 4 6 7 9 6 10 9 9 8 7 10 10 8 7 5 5 5 5 6 6 6
5 5 4 3 2 2 1 1 1 1 1 1 1 -0 -0 -0 -0 -0 0 0 1 5 9 8 4 2 1 1 2 2 2 3 5 6 7 8 5 7 6 7 9 6 8 10 11 7 7 6 5 5 6 6 6 6
5 5 4 3 2 2 2 1 1 1 1 1 1 1 0 -0 -0 0 4 1 1 2 7 10 4 4 2 2 3 3 3 4 4 5 5 5 5 7 9 10 7 6 5 5 7 5 5 5 5 5 6 6 6 6
5 4 4 3 2 2 1 1 1 0 1 1 1 0 0 0 -0 3 5 2 1 2 6 9 7 4 2 3 3 4 3 4 5 5 6 7 6 6 6 11 6 5 5 5 4 4 6 5 6 5 5 6 5 5
5 4 3 3 2 2 1 1 1 1 0 1 1 0 0 1 1 3 1 1 1 3 4 9 9 7 3 6 6 4 6 5 5 6 6 7 6 6 9 7 6 5 5 4 4 4 4 4 5 5 5 6 6 7
4 3 3 2 2 2 1 1 1 0 0 1 1 0 -0 1 1 2 1 0 -0 3 7 7 11 12 4 5 4 5 5 8 5 8 8 7 7 10 8 7 6 5 5 5 4 4 4 4 5 6 6 6 7 7
4 3 2 2 2 2 1 1 0 0 1 0 0 3 3 2 1 1 2 4 4 4 4 8 5 8 6 5 6 7 6 8 10 8 5 7 8 6 5 5 5 5 4 4 5 5 5 5 6 6 6 6 6 7
3 3 2 2 2 1 1 0 -0 0 -0 1 4 5 1 1 1 3 6 6 5 8 5 5 6 8 4 8 8 5 7 7 11 9 9 9 10 7 5 5 4 4 3 3 3 3 3 4 5 5 6 5 6 7
3 3 2 2 2 1 1 0 -0 -0 1 1 1 1 1 3 5 7 8 6 7 9 6 7 6 5 5 3 7 6 9 8 13 6 9 13 10 6 5 5 4 3 3 3 3 4 4 5 4 5 5 5 5 6
3 3 2 2 1 1 1 -0 -1 -0 -0 0 3 5 5 5 11 10 11 9 9 6 6 6 7 5 5 4 6 7 10 11 6 10 12 11 8 6 5 5 5 4 4 4 5 5 5 5 4 5 5 5 5 7
3 3 2 2 1 1 0 -0 0 0 1 4 6 11 8 9 9 9 9 8 6 5 6 6 6 7 5 7 7 11 7 7 11 14 14 9 7 6 5 4 5 5 5 5 5 5 5 5 5 5 5 5 6 7
3 3 2 2 2 2 1 -0 0 -0 2 6 6 11 9 6 6 6 6 6 5 4 5 6 6 6 8 9 7 8 10 12 11 13 10 8 6 5 5 5 5 5 5 5 4 4 5 5 5 5 5 5 6 7
3 3 2 2 2 1 1 -0 -0 0 3 5 6 8 6 7 7 7 7 7 3 4 4 5 8 9 10 8 11 11 12 14 12 10 8 6 5 5 5 5 4 4 4 3 3 3 3 4 4 5 5 6 7 9
3 3 2 1 2 1 0 1 1 5 5 6 7 6 7 7 7 7 6 6 3 6 9 7 11 12 8 10 11 10 12 10 9 7 6 5 5 5 5 4 4 4 3 3 3 3 3 4 5 6 7 7 8 8
4 2 2 1 1 0 0 1 4 5 7 6 9 7 7 7 6 6 5 4 5 6 6 9 7 11 12 13 12 10 8 6 6 6 5 4 4 4 4 4 4 4 4 4 4 5 5 6 7 7 7 7 8 8
3 2 2 1 2 2 3 4 3 7 5 4 4 4 4 4 4 3 3 3 4 4 6 7 10 11 10 8 9 7 6 6 6 5 5 4 4 4 4 4 4 5 5 5 5 6 6 6 6 7 7 8 9 8
3 2 2 2 2 3 5 5 1 5 7 5 3 5 4 5 3 4 4 4 5 6 8 9 8 7 6 5 4 5 4 4 5 6 6 5 5 5 5 5 6 5 6 6 6 7 6 7 7 8 8 8 8 9
2 1 1 1 1 2 4 5 5 5 4 6 4 4 5 4 5 5 5 4 6 7 8 5 5 4 4 3 2 3 4 4 5 6 7 7 6 6 6 6 5 6 6 6 7 7 7 7 7 7 8 8 8 8
2 2 1 1 4 4 5 3 5 4 4 5 5 4 5 6 6 5 4 6 7 6 4 4 4 4 4 3 4 4 3 4 4 6 7 7 7 6 6 6 6 6 6 6 6 7 7 7 7 7 8 8 9 9
2 2 2 3 7 6 7 3 6 5 7 7 5 6 7 6 5 3 7 6 6 3 3 3 3 3 4 4 3 4 4 5 6 6 6 6 6 6 6 6 5 6 7 6 6 7 7 9 9 7 8 8 8 8
2 4 6 6 7 8 5 7 5 6 6 7 7 8 7 6 4 6 8 7 5 3 3 3 3 4 4 4 5 6 5 5 5 5 5 5 6 6 5 5 5 5 6 6 6 7 7 8 10 8 8 8 8 8
7 7 6 9 6 8 9 8 7 7 9 7 8 8 7 5 8 8 8 7 5 5 4 3 4 4 5 5 5 5 4 5 5 6 5 5 5 5 6 5 6 6 6 7 7 7 8 7 8 8 8 8 9 9
9 7 9 8 7 8 8 10 8 8 8 8 7 5 5 7 10 10 7 6 5 4 4 4 4 4 5 4 5 5 4 3 4 6 5 5 5 6 6 7 8 8 6 6 7 8 8 8 8 9 10 11 12 9
10 9 6 4 4 5 6 6 6 7 8 10 9 8 9 11 11 8 5 3 4 3 2 1 3 4 4 4 4 4 3 2 3 4 4 4 4 4 4 6 7 7 6 7 7 7 8 8 9 9 9 9 8 8
7 6 8 6 6 5 7 7 8 9 8 7 8 10 11 10 10 6 5 4 3 3 2 2 1 2 3 3 3 3 3 3 3 3 4 4 5 5 5 6 7 11 7 7 7 7 7 8 8 9 9 9 9 8
7 5 5 7 6 6 6 7 7 5 4 5 7 8 7 5 3 3 5 4 4 3 3 2 2 2 3 3 3 3 3 4 5 7 7 7 7 7 6 7 7 7 7 8 14 10 8 8 8 8 9 8 8 8
6 4 6 7 8 8 6 4 5 4 2 3 4 4 4 4 3 1 2 4 4 3 3 3 2 2 4 4 4 4 3 3 4 5 6 6 6 6 6 6 7 7 7 8 9 10 13 10 11 9 9 8 8 8
4 5 6 6 7 5 4 3 2 3 4 4 4 6 6 5 3 2 2 2 4 3 3 3 3 3 3 4 4 5 6 4 4 4 4 4 5 5 5 6 6 7 7 8 8 9 9 9 8 9 9 9 10 9
5 6 7 8 7 4 3 4 5 6 5 6 6 5 5 5 6 4 2 2 2 3 5 4 4 4 3 2 2 3 7 4 4 4 4 5 5 5 5 6 6 7 7 7 8 8 8 9 9 9 9 10 9 9
6 6 6 6 6 7 5 5 6 7 7 8 7 6 6 7 8 4 1 2 2 5 5 3 3 3 2 3 3 3 6 3 6 10 10 9 9 8 6 6 6 7 7 8 8 8 9 9 10 10 10 10 10 11